EW5506 Weather Reports


time (UTC)temp
C
wind
direction
speed
KPH
gust
KPH
rain 1hr
cm
rain 24hr
cm
rain mn
cm
humidity
%
barometer
mb
20260502231528 17 219 8.0 17.7 0.00 0.00 0.00 55 1016.1
20260502230054 16 242 11.3 17.7 0.00 0.00 0.00 57 1016.1
20260502224528 17 238 11.3 17.7 0.00 0.00 0.00 56 1016.2
20260502223048 17 237 11.3 20.9 0.00 0.00 0.00 52 1016.2
20260502221520 17 248 8.0 12.9 0.00 0.00 0.00 53 1016.2
20260502220015 17 200 6.4 16.1 0.00 0.00 0.00 52 1016.3
20260502214557 18 238 8.0 16.1 0.00 0.00 0.00 52 1016.3
20260502213007 18 232 8.0 14.5 0.00 0.00 0.00 49 1016.3
20260502211507 18 240 8.0 16.1 0.00 0.00 0.00 47 1016.3
20260502210008 20 286 14.5 19.3 0.00 0.00 0.00 44 1016.4
20260502204510 20 270 9.7 22.5 0.00 0.00 0.00 44 1016.3
20260502203043 19 238 11.3 20.9 0.00 0.00 0.00 50 1016.3
20260502201520 19 216 12.9 20.9 0.00 0.00 0.00 55 1016.2
20260502200048 18 229 8.0 14.5 0.00 0.00 0.00 58 1016.1
20260502194514 19 243 6.4 12.9 0.00 0.00 0.00 56 1016.0
20260502193023 20 239 8.0 14.5 0.00 0.00 0.00 53 1015.9
20260502191516 20 233 8.0 14.5 0.00 0.00 0.00 52 1015.9
20260502190104 21 213 8.0 12.9 0.00 0.00 0.00 51 1015.7
20260502184534 21 255 6.4 12.9 0.00 0.00 0.00 51 1015.6
20260502183112 21 230 4.8 11.3 0.00 0.00 0.00 50 1015.6
20260502181541 22 248 6.4 14.5 0.00 0.00 0.00 48 1015.5
20260502180110 22 261 4.8 12.9 0.00 0.00 0.00 47 1015.4
20260502170117 24 277 6.4 17.7 0.00 0.00 0.00 42 1015.5
20260502163118 24 292 3.2 11.3 0.00 0.00 0.00 47 1015.7
20260502161624 25 302 4.8 8.0 0.00 0.00 0.00 43 1015.8
20260502161505 25 303 4.8 8.0 0.00 0.00 0.00 43 1015.8
20260502160121 25 302 4.8 8.0 0.00 0.00 0.00 41 1016.0
20260502151548 25 310 3.2 14.5 0.00 0.00 0.00 40 1016.4
20260502150114 26 355 3.2 12.9 0.00 0.00 0.00 40 1016.6
20260502140108 26 346 4.8 9.7 0.00 0.00 0.00 41 1017.5
20260502130107 25 255 0.0 11.3 0.00 0.00 0.00 42 1018.4
20260502123054 25 225 3.2 9.7 0.00 0.00 0.00 43 1018.8
20260502121522 25 283 4.8 12.9 0.00 0.00 0.00 43 1019.0
20260502114519 24 290 6.4 14.5 0.00 0.00 0.00 44 1019.5
20260502113040 23 277 3.2 9.7 0.00 0.00 0.00 44 1019.7
20260502111559 23 196 6.4 9.7 0.00 0.00 0.00 47 1019.9
20260502111505 23 185 6.4 9.7 0.00 0.00 0.00 47 1019.9
20260502110012 23 200 1.6 11.3 0.00 0.00 0.00 48 1020.1
20260502104506 23 235 6.4 12.9 0.00 0.00 0.00 46 1020.3
20260502103119 22 257 6.4 12.9 0.00 0.00 0.00 48 1020.6
20260502101545 22 235 6.4 12.9 0.00 0.00 0.00 49 1020.8
20260502091518 21 246 6.4 16.1 0.00 0.00 0.00 51 1021.4
20260502080109 18 190 4.8 12.9 0.00 0.00 0.00 53 1022.1
20260502071521 15 195 9.7 12.9 0.00 0.00 0.00 56 1022.5
20260502070039 15 164 6.4 11.3 0.00 0.00 0.00 57 1022.5
20260502064503 14 192 6.4 14.5 0.00 0.00 0.00 57 1022.6
20260502063015 14 187 8.0 12.9 0.00 0.00 0.00 58 1022.5
20260502061544 13 165 6.4 14.5 0.00 0.00 0.00 59 1022.4
20260502054521 12 205 6.4 11.3 0.00 0.00 0.00 67 1022.5
20260502053110 11 192 3.2 11.3 0.00 0.00 0.00 71 1022.5
20260502051512 8 186 8.0 12.9 0.00 0.00 0.00 81 1022.5
20260502050015 8 205 6.4 14.5 0.00 0.00 0.00 82 1022.3
20260502044507 7 255 3.2 6.4 0.00 0.00 0.00 84 1022.3
20260502043034 7 256 3.2 6.4 0.00 0.00 0.00 83 1022.3
20260502041519 8 257 1.6 3.2 0.00 0.00 0.00 83 1022.2
20260502040056 8 257 1.6 4.8 0.00 0.00 0.00 83 1022.2
20260502034533 8 257 1.6 4.8 0.00 0.00 0.00 82 1022.2
20260502033105 8 257 3.2 4.8 0.00 0.00 0.00 81 1022.3
20260502031525 8 257 0.0 3.2 0.00 0.00 0.00 81 1022.3
20260502024548 8 257 3.2 6.4 0.00 0.00 0.00 80 1022.3
20260502023033 8 257 0.0 3.2 0.00 0.00 0.00 80 1022.3
20260502021519 8 257 3.2 17.7 0.00 0.00 0.00 81 1022.3
20260502020059 8 232 3.2 4.8 0.00 0.00 0.00 82 1022.2
20260502014533 8 235 3.2 8.0 0.00 0.00 0.00 81 1022.2
20260502013053 8 238 3.2 4.8 0.00 0.00 0.00 80 1022.3
20260502011521 8 238 1.6 4.8 0.00 0.00 0.00 80 1022.4
20260502004532 8 237 3.2 8.0 0.00 0.00 0.00 80 1022.5
20260502003106 9 227 1.6 4.8 0.00 0.00 0.00 79 1022.6
20260502001533 9 227 1.6 4.8 0.00 0.00 0.00 78 1022.7
20260502000050 9 227 3.2 8.0 0.00 0.00 0.00 78 1022.8
20260501234516 9 229 3.2 8.0 0.00 0.00 0.00 78 1022.8
20260501233102 9 227 1.6 4.8 0.00 0.00 0.00 77 1022.8